Weather History for KRFD - November, 2012

Change the Weather History Date:

Saturday, November 3, 2012

  Actual Average Record
Temperature  
Mean Temperature 38 °F 45 °F  
Max Temperature 46 °F 55 °F 77 °F (1938)
Min Temperature 30 °F 36 °F 11 °F (1951)
Degree Days  
Heating Degree Days 27 20  
Month to date heating degree days 74 58  
Since 1 July heating degree days 667 611  
Cooling Degree Days 0 0  
Month to date cooling degree days 0 0  
Year to date cooling degree days 1227 820  
Moisture  
Dew Point 29 °F    
Average Humidity 70    
Maximum Humidity 82    
Minimum Humidity 57    
Precipitation  
Precipitation T in 0.09 in 1.65 in (1935)
Month to date precipitation T 0.28  
Year to date precipitation 20.26 31.96  
Snow  
Snow 0.00 in 0.00 in 3.40 in (1951)
Month to date snowfall 0.0 0.0  
Since 1 July snowfall 0.0 0.1  
Since 1 September snowfall 0.0 0.1  
Snow Depth 0.00 in    
Sea Level Pressure  
Sea Level Pressure 30.22 in    
Wind  
Wind Speed 6 mph (ENE)    
Max Wind Speed 14 mph    
Max Gust Speed 17 mph    
Visibility 10 miles    
Events      
T = Trace of Precipitation, MM = Missing Value Source: NWS Daily Summary

Daily Weather History Graph

Daily Weather History Graph

Search for Another Location

Airport or City:

Trip Planner

Search our weather history database for the weather conditions in past years. The results will help you decide how hot, cold, wet, or windy it might be!

Date:

Astronomy

Nov. 03, 2012 Rise Set
Actual Time 7:32 AM CDT 5:46 PM CDT
Civil Twilight 7:03 AM CDT 6:16 PM CDT
Nautical Twilight 6:29 AM CDT 6:49 PM CDT
Astronomical Twilight 5:57 AM CDT 7:21 PM CDT
Moon 9:26 PM CDT (11/3) 11:38 AM CDT (11/3)
Length of Visible Light 11h 12m
Length of Day
10h 14m
Waning Gibbous, 80% of the Moon is Illuminated
Nov 3
Waning Gibbous
Nov 6
Last Quarter
Nov 13
New
Nov 20
First Quarter
Nov 28
Full

Hourly Weather History & Observations

Time (CDT) Temp. Windchill Dew Point Humidity Pressure Visibility Wind Dir Wind Speed Gust Speed Precip Events Conditions
12:54 AM 34.0 °F 28.8 °F 28.9 °F 82% 30.20 in 10.0 mi ENE 5.8 mph - N/A   Mostly Cloudy
1:54 AM 36.0 °F 33.3 °F 30.0 °F 79% 30.20 in 10.0 mi ENE 3.5 mph - N/A   Mostly Cloudy
2:54 AM 37.0 °F 31.0 °F 30.0 °F 76% 30.19 in 10.0 mi ENE 8.1 mph - N/A   Overcast
3:54 AM 37.0 °F 31.0 °F 28.9 °F 73% 30.18 in 10.0 mi ENE 8.1 mph - N/A   Overcast
4:54 AM 37.9 °F 33.5 °F 28.9 °F 70% 30.19 in 10.0 mi East 5.8 mph - N/A   Overcast
5:54 AM 37.9 °F 33.5 °F 28.9 °F 70% 30.20 in 10.0 mi ENE 5.8 mph - N/A   Overcast
6:54 AM 37.9 °F 33.5 °F 30.0 °F 73% 30.20 in 10.0 mi ENE 5.8 mph - N/A   Overcast
7:54 AM 37.9 °F 32.1 °F 30.9 °F 76% 30.22 in 10.0 mi NE 8.1 mph - N/A   Mostly Cloudy
8:54 AM 39.9 °F 35.8 °F 30.9 °F 70% 30.25 in 10.0 mi NE 5.8 mph - N/A   Overcast
9:54 AM 41.0 °F 34.3 °F 30.9 °F 67% 30.25 in 10.0 mi ENE 11.5 mph - N/A   Overcast
10:54 AM 42.1 °F 37.1 °F 30.9 °F 65% 30.26 in 10.0 mi ENE 8.1 mph - N/A   Overcast
11:54 AM 45.0 °F 39.3 °F 30.9 °F 58% 30.25 in 10.0 mi East 11.5 mph - N/A   Overcast
12:54 PM 44.1 °F 39.5 °F 30.9 °F 60% 30.23 in 10.0 mi ENE 8.1 mph - 0.00 in   Overcast
1:54 PM 44.1 °F 39.5 °F 30.0 °F 58% 30.22 in 10.0 mi ENE 8.1 mph - N/A   Mostly Cloudy
2:54 PM 44.1 °F - 30.0 °F 58% 30.22 in 10.0 mi Calm Calm - N/A   Mostly Cloudy
3:54 PM 45.0 °F 43.5 °F 30.0 °F 56% 30.22 in 10.0 mi Variable 3.5 mph - N/A   Overcast
4:54 PM 45.0 °F 41.8 °F 30.0 °F 56% 30.22 in 10.0 mi NE 5.8 mph - N/A   Overcast
5:54 PM 43.0 °F 37.2 °F 28.9 °F 58% 30.22 in 10.0 mi NNE 10.4 mph - N/A   Mostly Cloudy
6:54 PM 42.1 °F 37.1 °F 28.9 °F 60% 30.24 in 10.0 mi NE 8.1 mph - N/A   Overcast
7:54 PM 37.0 °F 32.4 °F 27.0 °F 67% 30.25 in 10.0 mi NNE 5.8 mph - N/A   Partly Cloudy
8:54 PM 36.0 °F - 28.0 °F 73% 30.25 in 10.0 mi Calm Calm - N/A   Scattered Clouds
9:54 PM 33.1 °F - 27.0 °F 78% 30.25 in 10.0 mi Calm Calm - N/A   Mostly Cloudy
10:54 PM 34.0 °F - 28.0 °F 79% 30.25 in 10.0 mi Calm Calm - N/A   Mostly Cloudy
11:54 PM 32.0 °F - 26.1 °F 79% 30.26 in 10.0 mi Calm Calm - N/A   Partly Cloudy